Regional Weather Roundup
Issued by NWS New Orleans/Baton Rouge, LA

Home | Current Version | Previous Version | Text Only | Print | Product List | Glossary On
Versions: 1 2 3 4 5 6 7 8 9 10 11 12 13 14 15 16 17 18 19 20 21 22 23 24 25 26 27 28 29 30 31 32 33 34 35 36 37 38 39 40 41 42 43 44 45 46 47 48 49 50
000
ASUS44 KLIX 240414
RWRLIX
NEW ORLEANS REGIONAL WEATHER ROUNDUP
NATIONAL WEATHER SERVICE NEW ORLEANS LA
1100 PM CDT TUE MAY 23 2017

NOTE: "FAIR" INDICATES FEW OR NO CLOUDS BELOW 12,000 FEET WITH NO
      SIGNIFICANT WEATHER AND/OR OBSTRUCTIONS TO VISIBILITY.
      SKY/WX - SKY CONDITION AND SIGNIFICANT WEATHER.
      TMP - AIR TEMPERATURE.     DP    - DEWPOINT TEMPERATURE.
      RH  - RELATIVE HUMIDITY.   PRES  - PRESSURE.
      HI  - HEAT INDEX.          WCI   - WIND CHILL INDEX.

*  THESE STATIONS ARE NOT NWS OR FAA STATIONS AND ARE NOT UNDER
   NWS QUALITY CONTROL.

LAZ038-040-048-061>063-065>067-069-240500-
SOUTHEAST LOUISIANA

CITY           SKY/WX    TMP DP  RH WIND       PRES   REMARKS
N.O. INTL ARPT MOCLDY    74  69  85 NW5       29.75R
N.O. LAKEFRONT PTCLDY    77  69  76 NW15      29.75R
N.O. DOWNTOWN*   N/A     78  68  71 NW6         N/A
RESERVE*         N/A     73  67  81 N5        29.76R
SLIDELL        PTCLDY    73  68  84 CALM      29.75R
BATON ROUGE    CLOUDY    69  66  90 CALM      29.76R
BOOTHVILLE     CLEAR     75  72  90 W5        29.76R
BELLE CHASSE   PTCLDY    75  68  78 CALM      29.75R
BOGALUSA*        N/A     72  67  84 NW3       29.77R
GALLIANO*      CLEAR     73  68  85 CALM      29.76R
NEW ROADS*       N/A     69  66  90 W5        29.77R
GONZALES*        N/A     69  66  90 NW3       29.76R
HAMMOND*       PTCLDY    70  64  83 CALM      29.75R
HOUMA*         NOT AVBL
PORT FOURCHON* CLEAR     77  72  83 W7        29.76R

$$

MSZ070-080>082-240500-
SOUTHERN MISSISSIPPI

CITY           SKY/WX    TMP DP  RH WIND       PRES   REMARKS
MCCOMB         CLOUDY    66  64  93 CALM      29.76R
GULFPORT       CLEAR     73  70  90 CALM      29.73R
BILOXI         PTCLDY    74  70  88 CALM      29.73R
PASCAGOULA     MOCLDY    73  69  87 W3        29.72R

$$

COASTAL OBSERVATIONS
LAKE AND NEARSHORE STATIONS

STATION/POSITION TIME  TEMP    WIND        PRES    WAVE
                       AIR SEA DIR/SP/G            HT/PER
                 (UTC) (F)     (DEG/KT/KT) (MB)    (FT/S)
PASCAGOULA       0348   79     270/ 10/ 13 1006.0
WAVELAND YACHT   0348   74 80  310/  6/  8 1006.7
GRAND ISLE       0348   78 80  290/  9/ 11 1007.4
SOUTHWEST PASS   0348          220/  6/  8   N/A
NEW CANAL        0348   77 80  310/  2/  9 1007.4
SHELL BEACH      0348   76 81  270/  4/  5 1007.4

OFFSHORE STATIONS

STATION/POSITION TIME  TEMP    WIND        PRES    WAVE
                       AIR SEA DIR/SP/G            HT/PER
                 (UTC) (F)     (DEG/KT/KT) (MB)    (FT/S)
64 S DAUPHIN ISL 0350   77 78  210/ 14/ 17 1007.5    3/ 5

$$




USA.gov is the U.S. government's official web portal to all federal, state and local government web resources and services.